Location: Caltech
(34.1382°N, 118.1253°W)
Time: 01:45:50
(UTC-07:00)

Oscar 11 - Visible Passes

Search period start: 25 April 2015 00:00
Search period end: 05 May 2015 00:00
Orbit: 617 x 627 km, 97.8° (Epoch: 24 April)

Date Brightness Start Highest point End Pass type
(mag) Time Alt. Az. Time Alt. Az. Time Alt. Az.
25 Apr 7.4 21:48:22 59° NNE 21:48:22 59° NNE 21:52:00 10° N visible
26 Apr 7.8 22:06:21 51° NW 22:06:21 51° NW 22:09:50 10° NNW visible
27 Apr 8.9 20:47:08 15° ENE 20:47:30 15° ENE 20:50:08 10° NNE visible
27 Apr 8.6 22:24:20 34° WNW 22:24:20 34° WNW 22:27:29 10° NNW visible
28 Apr 8.3 21:05:06 24° ENE 21:05:15 24° ENE 21:08:47 10° NNE visible
28 Apr 9.2 22:42:18 22° WNW 22:42:18 22° WNW 22:44:52 10° NW visible
29 Apr 7.7 21:23:04 38° ENE 21:23:04 38° ENE 21:27:04 10° N visible
29 Apr 9.8 23:00:16 14° WNW 23:00:16 14° WNW 23:01:47 10° WNW visible
30 Apr 7.2 21:41:02 61° ENE 21:41:02 61° ENE 21:45:08 10° N visible
01 May 7.2 21:59:01 70° NW 21:59:01 70° NW 22:03:00 10° NNW visible
02 May 9.0 20:39:47 12° E 20:40:39 13° ENE 20:42:45 10° NE visible
02 May 8.0 22:16:59 44° WNW 22:16:59 44° WNW 22:20:42 10° NNW visible
03 May 8.5 20:57:45 20° E 20:58:23 20° ENE 21:01:39 10° NNE visible
03 May 8.8 22:34:57 28° W 22:34:57 28° W 22:38:10 10° NW visible
04 May 7.9 21:15:42 31° E 21:16:07 32° ENE 21:20:01 10° N visible
04 May 9.5 22:52:54 17° W 22:52:54 17° W 22:55:17 10° NW visible
